カタログに戻る

OPS 4078

DMSP 4B F2

運用中気象SSO
NORAD 3510·PAYLOAD·🇺🇸 United States

打ち上げ Oct 23, 1968 から Vandenberg Space Force Base

Loading…

次のパス (今後24時間)

TLE

最新Source: Space-Track

元期: Sep 14, 2026, 08:04 UTC

1 03510U 68092A   26257.33634318  .00000068  00000-0  44454-4 0  9996
2 03510  98.5831  18.3329 0030747  67.4154 293.0275 14.28272791  9931

AllMySatでOPS 4078をリアルタイム追跡

Download on the App Store